Regional Weather Roundup
Issued by NWS Albany, NY

Home | Current Version | Previous Version | Text Only | Print | Product List | Glossary On
Versions: 1 2 3 4 5 6 7 8 9 10 11 12 13 14 15 16 17 18 19 20 21 22 23 24 25 26 27 28 29 30 31 32 33 34 35 36 37 38 39 40 41 42 43 44 45 46 47 48 49 50
000
ASUS41 KALY 220610
RWRALY

NEW YORK STATE HOURLY WEATHER ROUNDUP
NATIONAL WEATHER SERVICE ALBANY NY
200 AM EDT TUE AUG 22 2017

NOTE: "FAIR" INDICATES FEW OR NO CLOUDS BELOW 12,000 FEET WITH NO
SIGNIFICANT WEATHER AND/OR NO OBSTRUCTIONS TO VISIBILITY.

NYZ032-033-038>043-046>054-057>066-NYZ062>081-082-084-220700-
EAST


CITY           SKY/WX    TMP DP  RH WIND       PRES   REMARKS
ALBANY         PTCLDY    73  68  84 S6        30.04S
GLENS FALLS    PTCLDY    63  62  97 CALM      30.03S FOG
POUGHKEEPSIE   CLEAR     69  67  93 CALM      30.05F
NEWBURGH       CLEAR     72  70  94 CALM      30.09S
MONTGOMERY     PTCLDY    69  68  96 CALM      30.06F FOG
WHITE PLAINS   CLEAR     74  69  85 S3        30.08F
ISLIP          PTCLDY    75  73  93 SW9       30.08F
NEW YORK CITY  PTCLDY    78  71  79 SW9       30.07F
CENTRAL PARK   CLEAR     76  70  82 VRB5      30.10F
$$

NYZ005>009-017-018-044>046-055-056-220700-
CENTRAL


CITY           SKY/WX    TMP DP  RH WIND       PRES   REMARKS
FULTON         CLEAR     64  63  96 CALM      30.00F FOG
SYRACUSE       PTCLDY    68  65  90 SE5       30.00F
ROME           CLEAR     68  65  90 E6        30.03F
ELMIRA         FOG       66  50  57 CALM      30.05F VSB 1/4
BINGHAMTON     CLEAR     66  65  96 S6        30.08F
MONTICELLO     FOG       65  65 100 CALM      30.12F VSB 1/4
$$

NYZ026>034-041>043-087-220700-
NORTH


CITY           SKY/WX    TMP DP  RH WIND       PRES   REMARKS
WATERTOWN      CLEAR     70  67  90 VRB3      29.98F
FORT DRUM      NOT AVBL
OGDENSBURG     FAIR      66  64  93 CALM      29.97F
MASSENA        CLEAR     70  66  87 SW6       29.98S
SARANAC LAKE   CLEAR     55  55 100 CALM      30.05F
PLATTSBURGH    CLEAR     65  61  87 CALM      29.98F
$$

NYZ001>004-010>016-019>021-085-220700-
WEST


CITY           SKY/WX    TMP DP  RH WIND       PRES   REMARKS
NIAGARA FALLS  CLEAR     75  66  73 S9        29.96F
BUFFALO        MOCLDY    72  65  78 S6        29.98F
DUNKIRK        PTCLDY    76  69  79 S16G25    29.99F
JAMESTOWN      PTCLDY    68  67  96 S7        30.07F
WELLSVILLE     LGT RAIN  71  64  78 SW6       30.12F
ROCHESTER      PTCLDY    70  67  90 SW3       30.00F
PENN YAN       CLEAR     70  66  87 SW9       30.04F
$$

             KEY
       WCI = WIND CHILL INDEX
       VSB = VISIBILITY
       HX  = HEAT INDEX
$$



USA.gov is the U.S. government's official web portal to all federal, state and local government web resources and services.